North Platte, NE

7:47 AM CDT on October 22, 2017 (GMT -0500)
North Platte Regional-Bird

Weather History for KLBF - November, 2012

Change the Weather History Date:

Saturday, November 24, 2012

  Actual Average Record
Temperature  
Mean Temperature 42 °F 31 °F  
Max Temperature 65 °F 46 °F 72 °F (1915)
Min Temperature 18 °F 17 °F -7 °F (1950)
Degree Days  
Heating Degree Days 23 34  
Month to date heating degree days 604 672  
Since 1 July heating degree days 1305 1341  
Cooling Degree Days 0 0  
Month to date cooling degree days 0 0  
Year to date cooling degree days 1245 768  
Moisture  
Dew Point 19 °F    
Average Humidity 47    
Maximum Humidity 73    
Minimum Humidity 21    
Precipitation  
Precipitation 0.00 in 0.01 in 0.32 in (1987)
Month to date precipitation T 0.54  
Year to date precipitation 9.62 19.72  
Snow  
Snow 0.00 in 0.10 in 4.00 in (1895)
Month to date snowfall T 3.0  
Since 1 July snowfall 2.2 5.3  
Since 1 September snowfall 2.2 5.3  
Snow Depth 0.00 in    
Sea Level Pressure  
Sea Level Pressure 30.02 in    
Wind  
Wind Speed 4 mph (West)    
Max Wind Speed 13 mph    
Max Gust Speed 17 mph    
Visibility 10 miles    
Events      
T = Trace of Precipitation, MM = Missing Value Source: NWS Daily Summary

Daily Weather History Graph

Daily Weather History Graph

Search for Another Location

Airport or City:

Trip Planner

Search our weather history database for the weather conditions in past years. The results will help you decide how hot, cold, wet, or windy it might be!

Date:

Astronomy

Nov. 24, 2012 Rise Set
Actual Time 7:41 AM CST 5:17 PM CST
Civil Twilight 7:11 AM CST 5:47 PM CST
Nautical Twilight 6:37 AM CST 6:21 PM CST
Astronomical Twilight 6:04 AM CST 6:54 PM CST
Moon 3:04 PM CST (11/24) 3:58 AM CST (11/24)
Length of Visible Light 10h 36m
Length of Day
9h 35m
Waxing Gibbous, 87% of the Moon is Illuminated
Nov 24
Waxing Gibbous
Nov 28
Full
Dec 6
Last Quarter
Dec 13
New
Dec 19
First Quarter

Hourly Weather History & Observations

Time (CST) Temp. Windchill Dew Point Humidity Pressure Visibility Wind Dir Wind Speed Gust Speed Precip Events Conditions
12:53 AM 32.0 °F 24.8 °F 15.1 °F 50% 30.26 in 10.0 mi South 8.1 mph - N/A   Clear
1:53 AM 30.0 °F 24.1 °F 14.0 °F 51% 30.22 in 10.0 mi South 5.8 mph - N/A   Clear
2:53 AM 30.0 °F 21.7 °F 14.0 °F 51% 30.19 in 10.0 mi South 9.2 mph - N/A   Clear
3:53 AM 26.1 °F - 14.0 °F 60% 30.17 in 10.0 mi Calm Calm - N/A   Clear
4:53 AM 25.0 °F - 12.9 °F 60% 30.16 in 10.0 mi Calm Calm - N/A   Clear
5:53 AM 21.0 °F - 12.0 °F 68% 30.15 in 10.0 mi Calm Calm - N/A   Clear
6:53 AM 23.0 °F - 14.0 °F 68% 30.13 in 10.0 mi Calm Calm - N/A   Clear
7:53 AM 19.0 °F 13.9 °F 12.9 °F 77% 30.12 in 10.0 mi WNW 3.5 mph - N/A   Clear
8:53 AM 27.0 °F 20.5 °F 16.0 °F 63% 30.10 in 10.0 mi West 5.8 mph - N/A   Clear
9:53 AM 30.9 °F 26.2 °F 18.0 °F 59% 30.07 in 10.0 mi West 4.6 mph - N/A   Clear
10:53 AM 37.0 °F 31.6 °F 21.0 °F 52% 30.04 in 10.0 mi West 6.9 mph - N/A   Clear
11:53 AM 44.1 °F 40.8 °F 23.0 °F 43% 29.97 in 10.0 mi WNW 5.8 mph - N/A   Clear
12:53 PM 48.9 °F - 24.1 °F 38% 29.92 in 10.0 mi West 3.5 mph - N/A   Clear
1:53 PM 57.0 °F - 24.1 °F 28% 29.89 in 10.0 mi West 11.5 mph - N/A   Clear
2:53 PM 62.1 °F - 23.0 °F 22% 29.85 in 10.0 mi West 6.9 mph - N/A   Clear
3:53 PM 64.0 °F - 24.1 °F 22% 29.84 in 10.0 mi Calm Calm - N/A   Clear
4:53 PM 55.9 °F - 25.0 °F 30% 29.85 in 10.0 mi Calm Calm - N/A   Clear
5:53 PM 50.0 °F - 24.1 °F 36% 29.89 in 10.0 mi Calm Calm - N/A   Clear
6:53 PM 43.0 °F 41.3 °F 23.0 °F 45% 29.91 in 10.0 mi NNW 3.5 mph - N/A   Clear
7:53 PM 37.9 °F 32.7 °F 19.9 °F 48% 29.95 in 10.0 mi NW 6.9 mph - N/A   Clear
8:53 PM 39.0 °F 36.8 °F 19.0 °F 45% 29.96 in 10.0 mi North 3.5 mph - N/A   Clear
9:53 PM 36.0 °F 32.1 °F 19.9 °F 52% 29.98 in 10.0 mi South 4.6 mph - N/A   Clear
10:53 PM 33.1 °F - 19.9 °F 59% 29.99 in 10.0 mi Calm Calm - N/A   Clear
11:53 PM 30.0 °F - 19.0 °F 64% 29.99 in 10.0 mi Calm Calm - N/A   Clear